India Forums Logo

Bollywood News, Bollywood Movies, Bollywood Chat

India Forums > Forum Index > Bollywood News, Bollywood Movies, Bollywood Chat
News about the Latest Bollywood Movies, Latest Talks in Bollywood find a place in this Section.
...
<< | 1273 | 1274 | 1275 | 1276 | 1277 | 1278 | 1279 | 1280 | 1281 | 1282 | 1283 | 1284 | 1285 | 1286 | 1287 | 1288 | 1289 | 1290 | 1291 | ... >>
TIDTopic SubjectStart DateLast Entry
3531056Ranbir Kapoor-Katrina Kaif Vancouver Aftermath4/11/2013 10:11:23 AM4/15/2013 3:23:40 AM
3531276HIMMATWALA Post Release Analysis4/11/2013 11:46:03 AM4/12/2013 7:56:32 AM
3531300Katrina looks back at her remarkable 10year journy4/11/2013 11:54:21 AM4/12/2013 11:44:27 AM
3531304who does aliya end up with in SOTY?4/11/2013 11:55:03 AM4/18/2013 8:28:05 AM
3531331TRIBUTE TO PRIYANKA - Shinning like a Diamond!4/11/2013 12:06:30 PM4/12/2013 3:19:37 PM
3531355How gorgeous is Wael!4/11/2013 12:19:40 PM4/11/2013 3:15:46 PM
3531395Ek thi Daayan---Lautungi main VIDEO4/11/2013 12:34:25 PM4/11/2013 12:50:04 PM
3531404Guess the song : Game4/11/2013 12:39:39 PM4/12/2013 2:24:56 AM
3531459Salman bashed up Ranbir Kapoor in a pub4/11/2013 1:04:39 PM4/13/2013 2:28:12 AM
3531471Madhuri-Ranbir-Farah team up for song in YJHD4/11/2013 1:11:06 PM4/11/2013 2:53:13 PM
3531483I'm in love4/11/2013 1:22:46 PM4/11/2013 6:00:31 PM
3531494GIPPI Song Promo: We Are Like This Only4/11/2013 1:39:07 PM4/11/2013 8:16:22 PM
3531510SP 26 worked only for section of audience: Ajay4/11/2013 1:54:42 PM4/12/2013 9:53:52 AM
3531539Cynthia is coming to Bwood!4/11/2013 2:29:24 PM4/11/2013 2:57:12 PM
3531577Movie Review - Nautanki Saala!4/11/2013 3:43:28 PM4/18/2013 5:50:38 AM
3531580Movie Review - Commando - A One Man Army4/11/2013 3:50:50 PM4/11/2013 3:50:50 PM
3531582Salman and katrina very rare picture4/11/2013 3:51:54 PM4/12/2013 2:09:12 PM
3531603Topic Kholo toh Jaane... :P4/11/2013 4:29:38 PM4/11/2013 5:57:09 PM
3531635SRK at the launch of Filmfare Special Edition4/11/2013 5:26:33 PM4/17/2013 9:03:19 PM
3531650Aashiqui music launch--ark and shraddha singing4/11/2013 5:50:16 PM4/15/2013 5:30:43 PM
3531653Aala Re Aala Video - SAW ft. John Abraham4/11/2013 5:57:44 PM4/12/2013 12:34:35 AM
3531689It's not about 100 crore, it's abt profits: Emraan4/11/2013 7:09:37 PM4/12/2013 12:39:31 AM
3531720Top 5 Bollywood scandals of all time!4/11/2013 8:18:58 PM4/11/2013 11:33:27 PM
3531726SRK stealing water from poor villagers :(4/11/2013 8:36:14 PM4/12/2013 7:15:12 PM
3531734Can this guy ever wear a new shirt???4/11/2013 8:49:31 PM4/11/2013 9:54:19 PM
3531768Old Aishu-Aamir Pics from Tour4/11/2013 9:25:44 PM4/11/2013 9:38:06 PM
3531775Sajid calls Akshay a flop, gets booted4/11/2013 9:31:57 PM4/11/2013 9:31:57 PM
3531787The Front Row: Meet the Next Salman Khan4/11/2013 9:57:40 PM4/11/2013 10:34:33 PM
3531793Arjun bags Dharma's next with Akshay4/11/2013 10:04:21 PM4/11/2013 11:55:04 PM
3531800Hrithik, Suzanne Sushmita attend Farah's store4/11/2013 10:10:25 PM4/12/2013 2:36:22 AM
3531805BOI:TOP 10 worldwide grossers updated4/11/2013 10:12:06 PM4/12/2013 2:33:04 AM
3531819Kat snubbed Daisy; Now they are contemporaries4/11/2013 10:29:32 PM4/13/2013 4:34:16 AM
3531827How old are BW forum people?4/11/2013 10:48:40 PM4/12/2013 6:57:07 AM
3531831Guess that Song! Dusra Janam!4/11/2013 10:54:35 PM4/24/2013 1:18:16 AM
3531832Salman Khan's oops moment!4/11/2013 10:58:04 PM4/12/2013 9:49:44 PM
3531861Movie Review - Commando4/11/2013 11:23:01 PM4/17/2013 8:22:21 AM
3531862John Abraham will finally do sequel (Force 2)4/11/2013 11:24:58 PM4/12/2013 10:24:56 AM
3531869Chasme Bhaddoor Emerges Biggest Hit Of 20134/11/2013 11:33:28 PM4/12/2013 1:38:05 AM
3531896dp n ranveer...i luv the pair!!!..4/11/2013 11:54:47 PM4/11/2013 11:54:47 PM
3531920Esha Gupta during her pre-fame days4/12/2013 12:11:58 AM4/12/2013 12:13:14 PM
3531947Salman Khan's 2nd BH Production film - Dr.Cabbie4/12/2013 12:38:40 AM4/12/2013 12:38:40 AM
3532035Salman Khan - Govinda to star in Mahesh M. Film4/12/2013 1:44:52 AM4/12/2013 12:38:53 PM
3532092jhalak Dikhla Jaa 6 promo-MD,Remo,KJo4/12/2013 2:30:36 AM4/12/2013 2:10:48 PM
3532250Meet Gippi!No1 bullies me coz I am fat: Riya Vij4/12/2013 4:23:37 AM4/12/2013 4:23:37 AM
3532273guess the name of the film part 64/12/2013 4:43:39 AM4/26/2013 1:08:40 PM
3532281Vidya and Akshay get nostalgic4/12/2013 4:55:38 AM4/12/2013 6:10:49 AM
3532338Arjun is KJO's new fav!!4/12/2013 5:45:25 AM4/12/2013 11:58:00 AM
3532350Ewww!!4/12/2013 5:52:09 AM4/12/2013 11:42:58 AM
3532433Akki tells his fans to treat their parents as god4/12/2013 6:59:36 AM4/12/2013 11:24:17 AM
3532445Actor Pran to receive this year's Dadasaheb Phalke4/12/2013 7:04:45 AM4/13/2013 4:51:50 AM
3532457Dharma Productions launches first song of 'Gippi'4/12/2013 7:16:25 AM4/12/2013 7:16:25 AM
3532527Rajnikanth-deepika magazine cover4/12/2013 7:54:53 AM4/13/2013 2:56:03 PM
3532530"Hum Mar Jayenge" Aashiqui 2 Video song4/12/2013 7:55:37 AM4/12/2013 10:19:34 AM
3532542Arjun and Varun in OLD movie4/12/2013 8:00:32 AM4/12/2013 12:12:21 PM
3532552Aamir gives fitness tips to salman4/12/2013 8:04:52 AM4/12/2013 12:07:41 PM
3532710John-Sridevi come together4/12/2013 9:10:35 AM4/13/2013 12:29:40 PM
3532712Shahrukh Khan and violence against women..4/12/2013 9:11:16 AM4/16/2013 2:54:35 AM
3532859Varun Dhawan's 'heroine' in "Main Tera Hero"4/12/2013 10:01:20 AM4/12/2013 3:26:36 PM
3533043kristen stewart vs sonam kapoor vs katrina kaif4/12/2013 11:07:40 AM4/12/2013 11:31:47 AM
3533106Rare Saif Katrina picture4/12/2013 11:28:12 AM4/14/2013 6:47:48 AM
3533202MANISH MALHOTRA ON THE BOND WITH KARISMA/KAJOL4/12/2013 12:12:21 PM4/12/2013 12:37:43 PM
3533210My Grandad was watching me from above:KARISMKapoor4/12/2013 12:15:30 PM4/13/2013 2:38:37 AM
3533241D.DHAWAN HOLDS A SCREENING FOR SALMAN AND KARISMA!4/12/2013 12:32:14 PM4/12/2013 12:55:46 PM
3533242Guess the actor/director/producer/choreographer!4/12/2013 12:32:29 PM4/16/2013 1:10:03 PM
3533258This Barbie Doll Reminds me of Priyanka4/12/2013 12:44:15 PM4/12/2013 2:18:29 PM
3533294Yami, Sonam, Lara & Chitrangada At IIJW4/12/2013 1:16:27 PM4/14/2013 6:11:34 PM
3533338Rajeev Masand interview with John Abraham4/12/2013 2:08:46 PM4/13/2013 12:04:57 AM
3533345Siddarth, Ayusman and Sushant on Front Row4/12/2013 2:20:17 PM4/13/2013 1:31:36 PM
353337210 Must-Watch Bollywood Horror Movies! Article4/12/2013 3:00:58 PM4/13/2013 10:23:33 AM
3533373Ayushman tu uss mein suit nahi hoga!!!4/12/2013 3:06:19 PM4/12/2013 5:00:15 PM
3533390Sanjay Dutt's 1st film after JAIL:HHRCK Trailer4/12/2013 3:40:57 PM4/12/2013 3:40:57 PM
3533398Dippy-Kat in SLB's Bajirao Mastani?4/12/2013 3:57:05 PM4/15/2013 2:42:26 PM
3533399Sunny Deol "friends" Aditya Chopra again4/12/2013 3:58:39 PM4/12/2013 8:41:38 PM
3533478Best performance of Tabu according to you !!!4/12/2013 7:20:24 PM4/13/2013 5:53:27 AM
3533484SRK-Aamir in a special song in Bombay Talkies4/12/2013 8:04:39 PM4/13/2013 11:47:07 AM
<< | 1273 | 1274 | 1275 | 1276 | 1277 | 1278 | 1279 | 1280 | 1281 | 1282 | 1283 | 1284 | 1285 | 1286 | 1287 | 1288 | 1289 | 1290 | 1291 | ... >>